Ogden, UT

3:27 AM MDT on March 30, 2017 (GMT -0600)
Ogden-Hinckley

Weather History for KOGD - April, 2013

Change the Weather History Date:

Monday, April 8, 2013

  Actual Average Record
Temperature  
Mean Temperature 40 °F -  
Max Temperature 48 °F 60 °F 80 °F (1977)
Min Temperature 33 °F 34 °F 21 °F (1982)
Degree Days  
Heating Degree Days 26    
Moisture  
Dew Point 35 °F    
Average Humidity 76    
Maximum Humidity 89    
Minimum Humidity 63    
Precipitation  
Precipitation 0.04 in - - ()
Sea Level Pressure  
Sea Level Pressure 29.46 in    
Wind  
Wind Speed 10 mph (NNW)    
Max Wind Speed 24 mph    
Max Gust Speed 33 mph    
Visibility 9 miles    
Events Rain , Snow    
Averages and records for this station are not official NWS values.
T = Trace of Precipitation, MM = Missing Value Source: NWS Daily Summary

Daily Weather History Graph

Daily Weather History Graph

Search for Another Location

Airport or City:

Trip Planner

Search our weather history database for the weather conditions in past years. The results will help you decide how hot, cold, wet, or windy it might be!

Date:

Astronomy

Apr. 08, 2013 Rise Set
Actual Time 6:59 AM MDT 8:00 PM MDT
Civil Twilight 6:31 AM MDT 8:29 PM MDT
Nautical Twilight 5:57 AM MDT 9:02 PM MDT
Astronomical Twilight 5:22 AM MDT 9:38 PM MDT
Moon 5:52 AM MDT (4/8) 6:38 PM MDT (4/8)
Length of Visible Light 13h 58m
Length of Day
13h 01m
Waning Crescent, 3% of the Moon is Illuminated
Apr 8
Waning Crescent
Apr 10
New
Apr 18
First Quarter
Apr 25
Full
May 2
Last Quarter

Hourly Weather History & Observations

Time (MDT) Temp. Windchill Dew Point Humidity Pressure Visibility Wind Dir Wind Speed Gust Speed Precip Events Conditions
12:53 AM 46.0 °F 41.9 °F 37.9 °F 73% 29.48 in 10.0 mi NW 8.1 mph - N/A   Mostly Cloudy
1:53 AM 44.1 °F 39.0 °F 36.0 °F 73% 29.45 in 10.0 mi WNW 9.2 mph - N/A   Scattered Clouds
2:53 AM 45.0 °F - 36.0 °F 71% 29.44 in 10.0 mi Calm Calm - N/A   Mostly Cloudy
3:53 AM 44.1 °F 40.8 °F 36.0 °F 73% 29.41 in 10.0 mi SSW 5.8 mph - N/A   Overcast
4:53 AM 43.0 °F 41.3 °F 35.1 °F 74% 29.41 in 10.0 mi NW 3.5 mph - N/A   Overcast
5:53 AM 44.1 °F - 36.0 °F 73% 29.37 in 10.0 mi Calm Calm - N/A   Overcast
6:53 AM 44.1 °F 39.0 °F 36.0 °F 73% 29.39 in 10.0 mi NNW 9.2 mph - N/A   Overcast
7:53 AM 46.0 °F 43.9 °F 36.0 °F 68% 29.39 in 10.0 mi NNW 4.6 mph - N/A   Overcast
8:53 AM 45.0 °F 37.4 °F 36.0 °F 71% 29.39 in 9.0 mi NE 18.4 mph - 0.00 in Rain Light Rain
9:11 AM 44.6 °F 39.2 °F 37.4 °F 76% 29.46 in 9.0 mi East 10.4 mph - 0.00 in Rain Light Rain
9:53 AM 46.0 °F 40.6 °F 34.0 °F 63% 29.39 in 10.0 mi ESE 11.5 mph - 0.00 in   Overcast
10:53 AM 43.0 °F 41.3 °F 34.0 °F 71% 29.40 in 10.0 mi NW 3.5 mph - N/A   Overcast
11:53 AM 43.0 °F 40.3 °F 37.0 °F 80% 29.42 in 10.0 mi WNW 4.6 mph - 0.00 in Rain Light Rain
12:03 PM 42.8 °F 39.3 °F 37.4 °F 81% 29.47 in 9.0 mi NW 5.8 mph - 0.00 in Rain Light Rain
12:23 PM 42.8 °F 40.1 °F 37.4 °F 81% 29.47 in 10.0 mi West 4.6 mph - 0.00 in Rain Light Rain
12:53 PM 44.1 °F 42.5 °F 37.0 °F 76% 29.42 in 9.0 mi WSW 3.5 mph - 0.01 in Rain Light Rain
1:36 PM 44.6 °F 42.2 °F 37.4 °F 76% 29.46 in 10.0 mi NNE 4.6 mph - 0.01 in Rain Light Rain
1:53 PM 45.0 °F 40.6 °F 37.0 °F 74% 29.40 in 10.0 mi NNW 8.1 mph - 0.01 in Rain Light Rain
2:53 PM 45.0 °F 37.9 °F 37.9 °F 76% 29.40 in 10.0 mi NNW 16.1 mph - 0.00 in   Overcast
3:53 PM 45.0 °F 37.6 °F 37.0 °F 74% 29.39 in 10.0 mi NNW 17.3 mph 24.2 mph N/A   Overcast
4:53 PM 44.1 °F 35.9 °F 36.0 °F 73% 29.40 in 10.0 mi NNW 19.6 mph 28.8 mph 0.00 in Rain Light Rain
5:53 PM 42.1 °F 32.8 °F 35.1 °F 76% 29.41 in 10.0 mi North 21.9 mph 33.4 mph 0.00 in   Overcast
6:53 PM 42.1 °F 32.8 °F 32.0 °F 67% 29.44 in 10.0 mi NNW 21.9 mph 32.2 mph N/A   Overcast
7:53 PM 39.0 °F 29.0 °F 34.0 °F 82% 29.45 in 10.0 mi NNW 20.7 mph 29.9 mph 0.00 in Rain Light Rain
8:53 PM 37.0 °F 25.9 °F 33.1 °F 86% 29.49 in 10.0 mi North 23.0 mph 29.9 mph 0.00 in   Overcast
9:45 PM 37.4 °F 26.1 °F 33.8 °F 87% 29.56 in 10.0 mi North 24.2 mph 33.4 mph 0.00 in Rain Light Rain
9:53 PM 36.0 °F 26.3 °F 33.1 °F 89% 29.53 in 10.0 mi North 16.1 mph 33.4 mph 0.00 in Rain Light Rain
10:53 PM 35.1 °F 24.8 °F 30.0 °F 82% 29.56 in 3.0 mi North 17.3 mph - 0.01 in Snow Light Snow
11:22 PM 35.6 °F 25.2 °F 28.4 °F 75% 29.61 in 2.5 mi NNE 18.4 mph - 0.00 in Snow Light Snow
11:30 PM 33.8 °F 24.8 °F 28.4 °F 81% 29.61 in 1.5 mi NNE 12.7 mph 24.2 mph 0.00 in Snow Light Snow
11:50 PM 33.8 °F 24.8 °F 28.4 °F 81% 29.62 in 2.5 mi NNE 12.7 mph - 0.01 in Snow Light Snow
11:53 PM 34.0 °F 23.4 °F 27.0 °F 75% 29.60 in 3.0 mi NNE 17.3 mph 32.2 mph 0.01 in Snow Light Snow